This is the latest recevied weather packets stored in our database for station/object KC8SWY-15. If no packets are shown the sender has not sent any weather packets the latest 1 day(s).
| Time | Temp. | Humidity | Pressure | Rain* | Wind** | Luminosity | Snow |
|---|---|---|---|---|---|---|---|
| 1778020468 | 10° C | 47% | 1009.2 hPa | 0 mm | 0.45 m/s, 344° | - | - |
| 1778020168 | 10° C | 48% | 1009.1 hPa | 0 mm | 0.45 m/s, 350° | - | - |
| 1778019868 | 10° C | 47% | 1009.1 hPa | 0 mm | 0.89 m/s, 341° | - | - |
| 1778019568 | 10° C | 48% | 1009.1 hPa | 0 mm | 0.89 m/s, 329° | - | - |
| 1778019268 | 10° C | 47% | 1009.1 hPa | 0 mm | 0.89 m/s, 300° | - | - |
| 1778018968 | 10.56° C | 48% | 1009 hPa | 0 mm | 0.45 m/s, 307° | - | - |
| 1778018668 | 10.56° C | 48% | 1009.1 hPa | 0 mm | 0 m/s | - | - |
| 1778018368 | 10.56° C | 47% | 1009.1 hPa | 0 mm | 0 m/s | - | - |
| 1778018068 | 10.56° C | 47% | 1009 hPa | 0 mm | 0 m/s | - | - |
| 1778017768 | 10.56° C | 47% | 1008.9 hPa | 0 mm | 0.89 m/s, 331° | - | - |
| 1778017468 | 10.56° C | 45% | 1009.1 hPa | 0 mm | 1.79 m/s, 294° | - | - |
| 1778017168 | 10.56° C | 46% | 1009.2 hPa | 0 mm | 1.34 m/s, 293° | - | - |
| 1778016868 | 10.56° C | 45% | 1009.2 hPa | 0 mm | 0 m/s | - | - |
| 1778016568 | 10.56° C | 47% | 1009.1 hPa | 0 mm | 0.45 m/s, 294° | - | - |
| 1778016268 | 10.56° C | 46% | 1009.1 hPa | 0 mm | 0.89 m/s, 314° | - | - |
| 1778015968 | 10.56° C | 46% | 1009.1 hPa | 0 mm | 1.34 m/s, 327° | - | - |
| 1778015668 | 10.56° C | 47% | 1009 hPa | 0 mm | 1.34 m/s, 325° | - | - |
| 1778015368 | 10.56° C | 46% | 1009.1 hPa | 0 mm | 1.79 m/s, 302° | - | - |
| 1778015068 | 10.56° C | 46% | 1009 hPa | 0 mm | 2.24 m/s, 311° | - | - |
| 1778014768 | 10.56° C | 45% | 1008.9 hPa | 0 mm | 1.34 m/s, 302° | - | - |
| 1778014468 | 10.56° C | 46% | 1009 hPa | 0 mm | 0.89 m/s, 308° | - | - |
| 1778014168 | 10.56° C | 45% | 1009 hPa | 0 mm | 0.89 m/s, 11° | - | - |
| 1778013868 | 11.11° C | 46% | 1009 hPa | 0 mm | 0.89 m/s, 342° | - | - |
| 1778013568 | 11.11° C | 46% | 1009 hPa | 0 mm | 1.34 m/s, 346° | - | - |
| 1778013268 | 10.56° C | 44% | 1009.2 hPa | 0 mm | 1.34 m/s, 321° | - | - |
* Rain latest hour (hover to see other rain measurements)
** Current wind speed in m/s (hover to see current wind gust speed)